AGROMETEOROLOŠKI PORTAL

vinorodna pokrajina

Temelj dobrega kmetovanja

Pregled podatkov za lokacijo Truške, meteorološka postaja 42414

Pregled senzorjev na lokaciji

ID Ime Zadnja
vrednost
Datum in čas
meritve
(lokalni čas)
Tip
senzorja
6361 Omočenost lista (1,5 m) (U) 0 U 4.10.2022 15:00 A730WET
6362 Padavine (mm) 0 mm 4.10.2022 15:00 Generic 0.2 mm
6360 Relativna zračna vlaga (2 m) (%RH) 65 %RH 4.10.2022 15:00 50YA
6359 Temperatura (2 m) (°C) 19,2 °C 4.10.2022 15:00 50YA

Pregled podatkov zadnjih 24 ur

Zap.
št.
Datum in čas
(lokalni čas)
Truške
Omočenost
lista
(1,5
m)
Padavine Relativna
zračna
vlaga
(2
m)
Temperatura
(2
m)
1 4.10.2022 15:00 0 0 65,1 19,2
2 4.10.2022 14:30 0 0 65,5 20,1
3 4.10.2022 14:00 0 0 66,9 19,6
4 4.10.2022 13:30 0 0 68,1 19
5 4.10.2022 13:00 0 0 66 19,3
6 4.10.2022 12:30 0 0 65,2 19,2
7 4.10.2022 12:00 0 0 67 18,3
8 4.10.2022 11:30 0 0 63,9 18,6
9 4.10.2022 11:00 0 0 64,9 17,9
10 4.10.2022 10:30 0 0 63 17,8
11 4.10.2022 10:00 0 0 62,3 17,2
12 4.10.2022 09:30 0 0 61,3 16,8
13 4.10.2022 09:00 0 0 64,5 15,9
14 4.10.2022 08:30 0 0 67,8 14,8
15 4.10.2022 08:00 0 0 67,2 14,6
16 4.10.2022 07:30 0 0 67,2 14,6
17 4.10.2022 07:00 0 0 69,8 14,2
18 4.10.2022 06:30 0 0 72,6 13,8
19 4.10.2022 06:00 0 0 71,4 14
20 4.10.2022 05:30 0 0 70,5 14,1
21 4.10.2022 05:00 0 0 69 14,6
22 4.10.2022 04:30 0 0 69,3 14,5
23 4.10.2022 04:00 0 0 70,8 14,3
24 4.10.2022 03:30 0 0 70,5 14,4
25 4.10.2022 03:00 1 0 72,3 14,3
26 4.10.2022 02:30 2 0 74,3 14,3
27 4.10.2022 02:00 9 0 74,9 14,4
28 4.10.2022 01:30 10 0 77,1 14,4
29 4.10.2022 01:00 10 0 77,4 14,5
30 4.10.2022 00:30 10 0 83,2 14,3
31 4.10.2022 00:00 10 0 93,4 14,2
32 3.10.2022 23:30 10 0 94 14,4
33 3.10.2022 23:00 10 0 94,2 14,6
34 3.10.2022 22:30 10 0 94,3 14,5
35 3.10.2022 22:00 10 0 93,6 14,8
36 3.10.2022 21:30 10 0 92,9 15,1
37 3.10.2022 21:00 10 0 92,8 15,1
38 3.10.2022 20:30 10 0 91,2 15,3
39 3.10.2022 20:00 10 0 89,8 15,9
40 3.10.2022 19:30 10 0 88,4 16,2
41 3.10.2022 19:00 10 0 84,4 16,9
42 3.10.2022 18:30 1 0 74,3 19,1
43 3.10.2022 18:00 0 0 68 20,5
44 3.10.2022 17:30 0 0 62,1 21
45 3.10.2022 17:00 0 0 60,7 21,3
46 3.10.2022 16:30 0 0 56,9 22,3